TimeCST,TemperatureF,Dew PointF,Humidity,Sea Level PressureIn,VisibilityMPH,Wind Direction,Wind SpeedMPH,Gust SpeedMPH,PrecipitationIn,Events,Conditions,WindDirDegrees,DateUTC
12:15 AM,40.3,36.1,85,30.00,10.0,Calm,Calm,-,N/A,,Clear,0,2013-02-05 06:15:00
12:35 AM,39.6,35.8,86,30.00,10.0,Calm,Calm,-,N/A,,Clear,0,2013-02-05 06:35:00
12:55 AM,39.6,36.1,88,29.99,10.0,Calm,Calm,-,N/A,,Clear,0,2013-02-05 06:55:00
1:15 AM,39.6,36.1,88,29.99,10.0,Calm,Calm,-,N/A,,Scattered Clouds,0,2013-02-05 07:15:00
1:35 AM,39.6,36.0,87,29.99,10.0,Calm,Calm,-,N/A,,Mostly Cloudy,0,2013-02-05 07:35:00
1:55 AM,39.6,35.8,86,29.98,10.0,Calm,Calm,-,N/A,,Mostly Cloudy,0,2013-02-05 07:55:00
2:15 AM,41.0,36.7,85,29.98,10.0,Calm,Calm,-,N/A,,Scattered Clouds,0,2013-02-05 08:15:00
2:35 AM,39.6,35.8,86,29.98,10.0,Calm,Calm,-,N/A,,Clear,0,2013-02-05 08:35:00
2:55 AM,39.7,35.8,86,29.99,10.0,Calm,Calm,-,N/A,,Clear,0,2013-02-05 08:55:00
3:15 AM,39.6,36.1,88,29.99,10.0,Calm,Calm,-,N/A,,Mostly Cloudy,0,2013-02-05 09:15:00
3:35 AM,39.7,36.7,89,29.98,10.0,Calm,Calm,-,N/A,,Mostly Cloudy,0,2013-02-05 09:35:00
3:55 AM,41.0,37.0,86,29.98,10.0,Calm,Calm,-,N/A,,Mostly Cloudy,0,2013-02-05 09:55:00
4:15 AM,41.0,37.4,87,29.98,10.0,Calm,Calm,-,N/A,,Overcast,0,2013-02-05 10:15:00
4:35 AM,41.0,37.4,87,29.98,10.0,Calm,Calm,-,N/A,,Overcast,0,2013-02-05 10:35:00
4:55 AM,41.0,37.6,88,29.99,10.0,Calm,Calm,-,N/A,,Overcast,0,2013-02-05 10:55:00
5:15 AM,42.1,38.1,86,30.00,10.0,Calm,Calm,-,N/A,,Overcast,0,2013-02-05 11:15:00
5:35 AM,42.3,37.9,85,30.01,10.0,Calm,Calm,-,N/A,,Overcast,0,2013-02-05 11:35:00
6:15 AM,42.8,37.9,83,30.01,10.0,Calm,Calm,-,N/A,,Mostly Cloudy,0,2013-02-05 12:15:00
6:55 AM,44.6,39.7,83,30.02,10.0,Calm,Calm,-,N/A,,Overcast,0,2013-02-05 12:55:00
7:15 AM,44.6,40.3,85,30.03,10.0,Calm,Calm,-,N/A,,Overcast,0,2013-02-05 13:15:00
7:35 AM,44.8,39.9,83,30.03,10.0,Calm,Calm,-,N/A,,Mostly Cloudy,0,2013-02-05 13:35:00
7:55 AM,47.3,41.4,80,30.04,10.0,Calm,Calm,-,N/A,,Unknown,0,2013-02-05 13:55:00
8:15 AM,50.0,41.4,72,30.04,10.0,Calm,Calm,-,N/A,,Clear,0,2013-02-05 14:15:00
8:35 AM,54.7,45.0,70,30.04,10.0,Calm,Calm,-,N/A,,Clear,0,2013-02-05 14:35:00
8:55 AM,55.8,45.0,67,30.05,10.0,SSE,3.5,-,N/A,,Clear,150,2013-02-05 14:55:00
9:15 AM,58.6,45.7,62,30.05,10.0,WSW,3.5,-,N/A,,Clear,250,2013-02-05 15:15:00
9:35 AM,60.8,46.6,59,30.05,10.0,SSW,5.8,-,N/A,,Clear,200,2013-02-05 15:35:00
9:55 AM,62.4,46.6,56,30.05,10.0,SSW,5.8,-,N/A,,Clear,200,2013-02-05 15:55:00
10:15 AM,64.8,47.5,53,30.04,10.0,SSW,5.8,-,N/A,,Clear,200,2013-02-05 16:15:00
10:35 AM,64.8,47.3,53,30.04,10.0,SSW,8.1,-,N/A,,Clear,210,2013-02-05 16:35:00
10:55 AM,67.8,48.7,50,30.04,10.0,SW,9.2,-,N/A,,Clear,220,2013-02-05 16:55:00
11:15 AM,69.8,48.9,47,30.04,10.0,WSW,6.9,-,N/A,,Scattered Clouds,250,2013-02-05 17:15:00
11:35 AM,69.8,47.3,45,30.03,10.0,SW,10.4,-,N/A,,Mostly Cloudy,230,2013-02-05 17:35:00
11:55 AM,69.8,44.6,40,30.02,10.0,SW,12.7,-,N/A,,Mostly Cloudy,220,2013-02-05 17:55:00
12:15 PM,69.8,45.7,42,30.01,10.0,West,4.6,-,N/A,,Scattered Clouds,280,2013-02-05 18:15:00
12:35 PM,69.8,44.4,40,30.00,10.0,West,6.9,-,N/A,,Scattered Clouds,270,2013-02-05 18:35:00
12:55 PM,69.8,43.7,39,30.00,10.0,SW,10.4,-,N/A,,Scattered Clouds,230,2013-02-05 18:55:00
1:15 PM,69.8,46.0,43,30.00,10.0,WSW,6.9,-,N/A,,Scattered Clouds,250,2013-02-05 19:15:00
1:35 PM,69.8,46.6,43,29.99,10.0,SW,6.9,-,N/A,,Scattered Clouds,230,2013-02-05 19:35:00
1:55 PM,69.8,46.0,43,29.99,10.0,WSW,8.1,-,N/A,,Scattered Clouds,250,2013-02-05 19:55:00
2:15 PM,69.8,47.5,45,29.99,10.0,SSW,6.9,-,N/A,,Scattered Clouds,210,2013-02-05 20:15:00
2:35 PM,69.8,46.4,43,29.99,10.0,SSW,4.6,-,N/A,,Scattered Clouds,200,2013-02-05 20:35:00
2:55 PM,70.0,46.0,42,29.98,10.0,SSW,4.6,-,N/A,,Mostly Cloudy,210,2013-02-05 20:55:00
3:15 PM,69.8,46.0,43,29.98,10.0,SSW,8.1,-,N/A,,Mostly Cloudy,210,2013-02-05 21:15:00
3:35 PM,70.0,45.3,41,29.98,10.0,SW,5.8,-,N/A,,Mostly Cloudy,230,2013-02-05 21:35:00
3:55 PM,70.3,45.5,41,29.97,10.0,SW,4.6,-,N/A,,Scattered Clouds,230,2013-02-05 21:55:00
4:15 PM,69.8,45.5,42,29.97,10.0,WSW,3.5,-,N/A,,Clear,240,2013-02-05 22:15:00
4:35 PM,69.8,46.6,43,29.98,10.0,SW,4.6,-,N/A,,Clear,230,2013-02-05 22:35:00
4:55 PM,69.8,48.2,46,29.98,10.0,WSW,4.6,-,N/A,,Clear,240,2013-02-05 22:55:00
5:15 PM,69.8,48.9,47,29.98,10.0,Calm,Calm,-,N/A,,Clear,0,2013-02-05 23:15:00
5:35 PM,63.5,47.7,56,29.98,10.0,NW,6.9,-,N/A,,Clear,320,2013-02-05 23:35:00
5:55 PM,62.2,48.6,61,29.98,10.0,Calm,Calm,-,N/A,,Clear,0,2013-02-05 23:55:00
6:15 PM,60.6,48.9,65,29.99,10.0,NNW,4.6,-,N/A,,Scattered Clouds,340,2013-02-06 00:15:00
6:35 PM,60.6,49.5,67,30.00,10.0,Calm,Calm,-,N/A,,Mostly Cloudy,0,2013-02-06 00:35:00
6:55 PM,59.9,49.6,69,30.01,10.0,Calm,Calm,-,N/A,,Scattered Clouds,0,2013-02-06 00:55:00
7:15 PM,57.2,49.3,75,30.01,10.0,Calm,Calm,-,N/A,,Scattered Clouds,0,2013-02-06 01:15:00
7:35 PM,57.2,50.5,78,30.03,10.0,North,4.6,-,N/A,,Mostly Cloudy,360,2013-02-06 01:35:00
7:55 PM,59.9,50.4,71,30.03,10.0,North,4.6,-,N/A,,Overcast,360,2013-02-06 01:55:00
8:15 PM,59.9,50.7,72,30.04,10.0,Calm,Calm,-,N/A,,Mostly Cloudy,0,2013-02-06 02:15:00
8:35 PM,58.5,50.7,75,30.04,10.0,Calm,Calm,-,N/A,,Mostly Cloudy,0,2013-02-06 02:35:00
8:55 PM,57.2,50.0,77,30.05,10.0,Calm,Calm,-,N/A,,Overcast,0,2013-02-06 02:55:00
9:15 PM,57.2,50.5,78,30.05,10.0,Calm,Calm,-,N/A,,Mostly Cloudy,0,2013-02-06 03:15:00
9:35 PM,55.9,50.2,81,30.06,10.0,Calm,Calm,-,N/A,,Mostly Cloudy,0,2013-02-06 03:35:00
9:55 PM,54.7,49.6,83,30.05,10.0,Calm,Calm,-,N/A,,Mostly Cloudy,0,2013-02-06 03:55:00
10:15 PM,54.7,50.2,85,30.05,10.0,Calm,Calm,-,N/A,,Mostly Cloudy,0,2013-02-06 04:15:00
10:35 PM,54.7,50.2,85,30.05,10.0,Calm,Calm,-,N/A,,Scattered Clouds,0,2013-02-06 04:35:00
10:55 PM,54.7,50.7,86,30.05,10.0,Calm,Calm,-,N/A,,Clear,0,2013-02-06 04:55:00
11:15 PM,52.3,48.4,86,30.05,10.0,Calm,Calm,-,N/A,,Scattered Clouds,0,2013-02-06 05:15:00
11:35 PM,52.2,48.6,88,30.05,10.0,Calm,Calm,-,N/A,,Scattered Clouds,0,2013-02-06 05:35:00
11:55 PM,54.5,50.5,86,30.05,10.0,Calm,Calm,-,N/A,,Mostly Cloudy,0,2013-02-06 05:55:00